AUA511 LOWW-LIMC

Flight info

Callsign AUA511
Flight time 1h 19m
Altitude 34000
Route OSPEN DCT ABRUK DCT SETAL DCT DETSA DCT RENTA M984 EVRIP
Aircraft A320/M-SDE3FGHIRWY/LB1

Departure

Time 2026-05-06 12:07
Airport Vienna International Airport (LOWW)

Arrival

Time 2026-05-06 13:27
Airport Milan Malpensa International Airport (LIMC)
Time Latitude Longitude Altitude Speed Heading
2026-05-06 11:33 48.11741 16.56679 613 ft 0 kts 25°
2026-05-06 11:58 48.11728 16.56670 623 ft 3 kts 25°
2026-05-06 11:58 48.11709 16.56657 616 ft 3 kts 25°
2026-05-06 11:58 48.11691 16.56643 626 ft 3 kts 25°
2026-05-06 11:58 48.11676 16.56635 621 ft 0 kts 91°
2026-05-06 11:59 48.11676 16.56630 619 ft 0 kts 120°
2026-05-06 12:01 48.11674 16.56633 609 ft 2 kts 120°
2026-05-06 12:01 48.11648 16.56704 617 ft 10 kts 117°
2026-05-06 12:01 48.11617 16.56804 613 ft 11 kts 115°
2026-05-06 12:01 48.11582 16.56911 617 ft 12 kts 115°
2026-05-06 12:02 48.11546 16.57024 610 ft 12 kts 115°
2026-05-06 12:02 48.11507 16.57143 610 ft 13 kts 117°
2026-05-06 12:02 48.11464 16.57267 613 ft 14 kts 117°
2026-05-06 12:02 48.11432 16.57399 614 ft 13 kts 76°
2026-05-06 12:03 48.11507 16.57470 608 ft 12 kts 28°
2026-05-06 12:03 48.11575 16.57526 616 ft 10 kts 28°
2026-05-06 12:03 48.11635 16.57549 618 ft 8 kts 342°
2026-05-06 12:03 48.11684 16.57524 619 ft 7 kts 343°
2026-05-06 12:04 48.11724 16.57506 616 ft 5 kts 343°
2026-05-06 12:04 48.11755 16.57493 619 ft 5 kts 343°
2026-05-06 12:04 48.11811 16.57468 616 ft 9 kts 343°
2026-05-06 12:04 48.11868 16.57444 620 ft 8 kts 343°
2026-05-06 12:05 48.11929 16.57418 614 ft 15 kts 345°
2026-05-06 12:05 48.12019 16.57439 612 ft 13 kts 63°
2026-05-06 12:05 48.12000 16.57571 614 ft 13 kts 106°
2026-05-06 12:05 48.11975 16.57708 616 ft 14 kts 104°
2026-05-06 12:06 48.11931 16.57840 615 ft 15 kts 152°
2026-05-06 12:06 48.11827 16.57882 614 ft 16 kts 163°
2026-05-06 12:06 48.11579 16.57992 616 ft 70 kts 163°
2026-05-06 12:06 48.10901 16.58283 615 ft 128 kts 163°
2026-05-06 12:07 48.09906 16.58694 653 ft 167 kts 163°
2026-05-06 12:07 48.08784 16.59155 1245 ft 169 kts 165°
2026-05-06 12:07 48.07649 16.59627 1893 ft 172 kts 168°
2026-05-06 12:07 48.06416 16.60071 2161 ft 193 kts 177°
2026-05-06 12:08 48.05096 16.59453 2421 ft 216 kts 217°
2026-05-06 12:08 48.03962 16.57791 2862 ft 239 kts 224°
2026-05-06 12:08 48.03198 16.56529 3364 ft 244 kts 225°
2026-05-06 12:08 48.02063 16.54603 4208 ft 249 kts 226°
2026-05-06 12:09 48.00916 16.52668 5122 ft 250 kts 226°
2026-05-06 12:09 47.99744 16.50728 5989 ft 253 kts 225°
2026-05-06 12:09 47.98551 16.48784 6838 ft 255 kts 225°
2026-05-06 12:09 47.97341 16.46836 7655 ft 258 kts 225°
2026-05-06 12:10 47.96215 16.44730 8448 ft 262 kts 233°
2026-05-06 12:10 47.95163 16.42541 9239 ft 264 kts 231°
2026-05-06 12:10 47.94036 16.40346 9977 ft 268 kts 231°
2026-05-06 12:10 47.92866 16.38117 10447 ft 282 kts 231°
2026-05-06 12:11 47.91606 16.35718 10626 ft 305 kts 231°
2026-05-06 12:11 47.90255 16.33125 10795 ft 327 kts 231°
2026-05-06 12:11 47.88850 16.30407 11344 ft 333 kts 231°
2026-05-06 12:11 47.87433 16.27648 12003 ft 338 kts 232°
2026-05-06 12:12 47.85980 16.24817 12655 ft 342 kts 232°
2026-05-06 12:12 47.84549 16.22030 13280 ft 346 kts 232°
2026-05-06 12:12 47.83085 16.19173 13895 ft 349 kts 232°
2026-05-06 12:12 47.81608 16.16292 14490 ft 351 kts 232°
2026-05-06 12:13 47.80115 16.13390 15060 ft 355 kts 232°
2026-05-06 12:13 47.78606 16.10466 15614 ft 358 kts 232°
2026-05-06 12:13 47.77085 16.07520 16210 ft 360 kts 232°
2026-05-06 12:13 47.75555 16.04555 16807 ft 363 kts 232°
2026-05-06 12:14 47.74014 16.01567 17392 ft 366 kts 232°
2026-05-06 12:14 47.72458 15.98556 17916 ft 369 kts 232°
2026-05-06 12:14 47.70887 15.95521 18434 ft 372 kts 232°
2026-05-06 12:14 47.69303 15.92467 18929 ft 375 kts 232°
2026-05-06 12:15 47.67703 15.89390 19414 ft 378 kts 232°
2026-05-06 12:15 47.66090 15.86290 19882 ft 381 kts 232°
2026-05-06 12:15 47.64462 15.83169 20371 ft 384 kts 231°
2026-05-06 12:15 47.62822 15.80028 20860 ft 386 kts 231°
2026-05-06 12:16 47.61170 15.76867 21331 ft 389 kts 231°
2026-05-06 12:16 47.59508 15.73684 21779 ft 392 kts 231°
2026-05-06 12:16 47.57835 15.70480 22200 ft 395 kts 231°
2026-05-06 12:16 47.56156 15.67261 22649 ft 396 kts 232°
2026-05-06 12:17 47.54464 15.64022 23117 ft 398 kts 231°
2026-05-06 12:17 47.52772 15.60795 23587 ft 397 kts 231°
2026-05-06 12:17 47.51072 15.57566 23991 ft 398 kts 231°
2026-05-06 12:17 47.49444 15.54247 24343 ft 400 kts 238°
2026-05-06 12:18 47.48186 15.50568 24676 ft 403 kts 247°
2026-05-06 12:18 47.47330 15.46606 25014 ft 406 kts 252°
2026-05-06 12:18 47.46558 15.42583 25329 ft 408 kts 252°
2026-05-06 12:18 47.45780 15.38549 25649 ft 409 kts 252°
2026-05-06 12:19 47.44995 15.34508 25941 ft 410 kts 252°
2026-05-06 12:19 47.44199 15.30459 26234 ft 411 kts 251°
2026-05-06 12:19 47.43397 15.26401 26524 ft 412 kts 252°
2026-05-06 12:19 47.42595 15.22327 26807 ft 414 kts 251°
2026-05-06 12:20 47.41803 15.18296 27071 ft 415 kts 252°
2026-05-06 12:20 47.40989 15.14148 27368 ft 416 kts 252°
2026-05-06 12:20 47.40178 15.10048 27695 ft 416 kts 251°
2026-05-06 12:20 47.39362 15.05951 27984 ft 416 kts 251°
2026-05-06 12:21 47.38554 15.01909 28233 ft 417 kts 251°
2026-05-06 12:21 47.37735 14.97797 28468 ft 418 kts 251°
2026-05-06 12:21 47.36917 14.93672 28685 ft 419 kts 252°
2026-05-06 12:21 47.36100 14.89546 28983 ft 418 kts 251°
2026-05-06 12:22 47.35283 14.85437 29295 ft 417 kts 251°
2026-05-06 12:22 47.34464 14.81342 29582 ft 416 kts 251°
2026-05-06 12:22 47.33641 14.77257 29953 ft 415 kts 251°
2026-05-06 12:22 47.32822 14.73194 30273 ft 413 kts 251°
2026-05-06 12:23 47.32004 14.69138 30603 ft 411 kts 251°
2026-05-06 12:23 47.31190 14.65113 30933 ft 409 kts 251°
2026-05-06 12:23 47.30380 14.61115 31253 ft 406 kts 251°
2026-05-06 12:23 47.29578 14.57154 31599 ft 403 kts 251°
2026-05-06 12:24 47.28776 14.53206 31909 ft 401 kts 251°
2026-05-06 12:24 47.27974 14.49281 32224 ft 399 kts 251°
2026-05-06 12:24 47.27172 14.45373 32475 ft 398 kts 251°
2026-05-06 12:24 47.26372 14.41474 32689 ft 397 kts 251°
2026-05-06 12:25 47.25573 14.37590 32983 ft 395 kts 251°
2026-05-06 12:25 47.24779 14.33730 33311 ft 393 kts 251°
2026-05-06 12:25 47.23990 14.29902 33629 ft 391 kts 251°
2026-05-06 12:25 47.23202 14.26085 33846 ft 389 kts 251°
2026-05-06 12:26 47.21630 14.18467 33884 ft 389 kts 251°
2026-05-06 12:26 47.20058 14.10884 33875 ft 386 kts 250°
2026-05-06 12:27 47.18484 14.03335 33887 ft 386 kts 250°
2026-05-06 12:27 47.16899 13.95789 33878 ft 387 kts 251°
2026-05-06 12:28 47.15319 13.88288 33870 ft 387 kts 250°
2026-05-06 12:28 47.13724 13.80731 33868 ft 387 kts 250°
2026-05-06 12:29 47.12129 13.73174 33869 ft 388 kts 251°
2026-05-06 12:29 47.10528 13.65626 33892 ft 388 kts 250°
2026-05-06 12:30 47.08917 13.58078 33881 ft 387 kts 250°
2026-05-06 12:30 47.07306 13.50541 33895 ft 387 kts 250°
2026-05-06 12:31 47.05689 13.43012 33900 ft 387 kts 250°
2026-05-06 12:31 47.04065 13.35492 33885 ft 387 kts 250°
2026-05-06 12:32 47.02441 13.27991 33904 ft 386 kts 249°
2026-05-06 12:32 47.00811 13.20498 33913 ft 386 kts 249°
2026-05-06 12:33 46.99175 13.13009 33905 ft 386 kts 249°
2026-05-06 12:33 46.97537 13.05529 33894 ft 386 kts 249°
2026-05-06 12:34 46.95899 12.98053 33882 ft 386 kts 249°
2026-05-06 12:34 46.94254 12.90579 33884 ft 386 kts 248°
2026-05-06 12:35 46.92602 12.83116 33870 ft 385 kts 249°
2026-05-06 12:35 46.90945 12.75668 33893 ft 384 kts 249°
2026-05-06 12:36 46.89283 12.68220 33899 ft 386 kts 248°
2026-05-06 12:36 46.87617 12.60772 33890 ft 384 kts 248°
2026-05-06 12:37 46.85953 12.53341 33909 ft 386 kts 248°
2026-05-06 12:37 46.84278 12.45901 33914 ft 385 kts 248°
2026-05-06 12:38 46.82598 12.38477 33927 ft 385 kts 248°
2026-05-06 12:38 46.80909 12.31044 33944 ft 386 kts 248°
2026-05-06 12:39 46.78823 12.23922 33972 ft 381 kts 240°
2026-05-06 12:39 46.76456 12.17010 33868 ft 380 kts 240°
2026-05-06 12:40 46.74101 12.10170 33862 ft 379 kts 240°
2026-05-06 12:40 46.71735 12.03298 33851 ft 379 kts 241°
2026-05-06 12:41 46.69369 11.96423 33850 ft 380 kts 240°
2026-05-06 12:41 46.66991 11.89536 33864 ft 381 kts 240°
2026-05-06 12:42 46.64604 11.82662 33860 ft 380 kts 240°
2026-05-06 12:42 46.62217 11.75792 33855 ft 380 kts 240°
2026-05-06 12:43 46.59828 11.68921 33865 ft 381 kts 240°
2026-05-06 12:43 46.57426 11.62061 33877 ft 380 kts 239°
2026-05-06 12:44 46.55025 11.55216 33876 ft 380 kts 240°
2026-05-06 12:44 46.52622 11.48376 33880 ft 380 kts 239°
2026-05-06 12:45 46.50215 11.41538 33891 ft 380 kts 240°
2026-05-06 12:46 46.46597 11.31308 33920 ft 379 kts 239°
2026-05-06 12:46 46.44190 11.24507 33910 ft 379 kts 239°
2026-05-06 12:47 46.41779 11.17723 33895 ft 379 kts 239°
2026-05-06 12:47 46.39368 11.10946 33974 ft 378 kts 239°
2026-05-06 12:48 46.36950 11.04177 33975 ft 378 kts 239°
2026-05-06 12:48 46.34523 10.97424 33967 ft 378 kts 239°
2026-05-06 12:49 46.32099 10.90679 33953 ft 378 kts 239°
2026-05-06 12:49 46.29681 10.83921 33987 ft 378 kts 239°
2026-05-06 12:50 46.27327 10.77136 33952 ft 377 kts 239°
2026-05-06 12:50 46.24986 10.70358 33926 ft 376 kts 239°
2026-05-06 12:51 46.22639 10.63609 33908 ft 376 kts 239°
2026-05-06 12:51 46.20281 10.56865 33902 ft 376 kts 239°
2026-05-06 12:52 46.17931 10.50141 33899 ft 376 kts 239°
2026-05-06 12:52 46.15581 10.43475 33899 ft 375 kts 239°
2026-05-06 12:53 46.13207 10.36763 33909 ft 375 kts 239°
2026-05-06 12:53 46.10844 10.30072 33898 ft 374 kts 239°
2026-05-06 12:54 46.08484 10.23408 33899 ft 374 kts 238°
2026-05-06 12:54 46.07298 10.20074 33348 ft 376 kts 238°
2026-05-06 12:54 46.06092 10.16690 32046 ft 384 kts 239°
2026-05-06 12:54 46.04858 10.13229 30855 ft 393 kts 239°
2026-05-06 12:55 46.04027 10.10901 30124 ft 396 kts 239°
2026-05-06 12:55 46.02789 10.07334 28776 ft 401 kts 240°
2026-05-06 12:55 46.01568 10.03699 27709 ft 402 kts 241°
2026-05-06 12:55 46.00381 10.00104 27108 ft 394 kts 241°
2026-05-06 12:56 45.99214 9.96560 26415 ft 390 kts 241°
2026-05-06 12:56 45.98053 9.93055 25766 ft 386 kts 241°
2026-05-06 12:56 45.96895 9.89591 25096 ft 383 kts 241°
2026-05-06 12:56 45.95738 9.86160 24463 ft 381 kts 241°
2026-05-06 12:57 45.94580 9.82754 23828 ft 377 kts 241°
2026-05-06 12:57 45.93432 9.79383 23183 ft 374 kts 241°
2026-05-06 12:57 45.92295 9.76042 22560 ft 370 kts 241°
2026-05-06 12:57 45.91170 9.72736 21998 ft 367 kts 241°
2026-05-06 12:58 45.90054 9.69454 21441 ft 364 kts 240°
2026-05-06 12:58 45.88949 9.66206 20923 ft 361 kts 241°
2026-05-06 12:58 45.87850 9.62989 20394 ft 357 kts 241°
2026-05-06 12:58 45.86768 9.59825 19926 ft 350 kts 240°
2026-05-06 12:59 45.85697 9.56694 19450 ft 348 kts 240°
2026-05-06 12:59 45.84634 9.53587 18998 ft 346 kts 240°
2026-05-06 12:59 45.83576 9.50504 18544 ft 343 kts 240°
2026-05-06 12:59 45.82530 9.47464 18328 ft 334 kts 240°
2026-05-06 13:00 45.81522 9.44529 18203 ft 322 kts 240°
2026-05-06 13:00 45.80550 9.41695 18074 ft 312 kts 240°
2026-05-06 13:00 45.79607 9.38948 17853 ft 303 kts 240°
2026-05-06 13:00 45.78684 9.36268 17785 ft 299 kts 240°
2026-05-06 13:01 45.77762 9.33602 17691 ft 298 kts 240°
2026-05-06 13:01 45.76842 9.30951 17573 ft 298 kts 240°
2026-05-06 13:01 45.75919 9.28291 17200 ft 300 kts 240°
2026-05-06 13:01 45.74986 9.25609 16849 ft 299 kts 241°
2026-05-06 13:02 45.74078 9.22987 16630 ft 298 kts 240°
2026-05-06 13:02 45.73159 9.20328 16250 ft 298 kts 241°
2026-05-06 13:02 45.72240 9.17680 15857 ft 297 kts 240°
2026-05-06 13:02 45.71324 9.15041 15481 ft 296 kts 240°
2026-05-06 13:03 45.70410 9.12413 15123 ft 294 kts 241°
2026-05-06 13:03 45.69500 9.09796 14752 ft 293 kts 241°
2026-05-06 13:03 45.68590 9.07189 14391 ft 292 kts 240°
2026-05-06 13:03 45.67683 9.04601 14027 ft 291 kts 240°
2026-05-06 13:04 45.66777 9.02014 13669 ft 291 kts 241°
2026-05-06 13:04 45.65872 8.99427 13257 ft 291 kts 241°
2026-05-06 13:04 45.64968 8.96848 12912 ft 289 kts 241°
2026-05-06 13:04 45.64071 8.94294 12425 ft 285 kts 241°
2026-05-06 13:05 45.63196 8.91841 12157 ft 270 kts 237°
2026-05-06 13:05 45.61994 8.89883 11788 ft 259 kts 216°
2026-05-06 13:05 45.60401 8.88749 11319 ft 257 kts 195°
2026-05-06 13:05 45.58629 8.88552 10803 ft 258 kts 174°
2026-05-06 13:06 45.56861 8.89018 10222 ft 259 kts 172°
2026-05-06 13:06 45.55096 8.89503 9671 ft 257 kts 172°
2026-05-06 13:06 45.53341 8.89978 9055 ft 256 kts 172°
2026-05-06 13:06 45.51604 8.90445 8544 ft 251 kts 172°
2026-05-06 13:07 45.49896 8.90907 8153 ft 249 kts 172°
2026-05-06 13:07 45.48194 8.91368 7791 ft 248 kts 171°
2026-05-06 13:07 45.46492 8.91830 7436 ft 250 kts 171°
2026-05-06 13:07 45.44781 8.92295 7092 ft 249 kts 171°
2026-05-06 13:08 45.43100 8.92756 6830 ft 242 kts 171°
2026-05-06 13:08 45.41471 8.93204 6630 ft 236 kts 171°
2026-05-06 13:08 45.39861 8.93645 6258 ft 235 kts 171°
2026-05-06 13:08 45.38259 8.94081 5931 ft 231 kts 172°
2026-05-06 13:09 45.36707 8.94502 5742 ft 223 kts 172°
2026-05-06 13:09 45.35182 8.94913 5622 ft 223 kts 172°
2026-05-06 13:09 45.33681 8.95318 5490 ft 222 kts 171°
2026-05-06 13:09 45.32143 8.95733 5367 ft 222 kts 171°
2026-05-06 13:10 45.30651 8.96134 5243 ft 221 kts 172°
2026-05-06 13:10 45.29142 8.96540 5103 ft 221 kts 172°
2026-05-06 13:10 45.27629 8.96949 4917 ft 222 kts 172°
2026-05-06 13:10 45.26116 8.97358 4799 ft 221 kts 172°
2026-05-06 13:11 45.24599 8.97770 4680 ft 222 kts 172°
2026-05-06 13:11 45.23085 8.98185 4554 ft 220 kts 172°
2026-05-06 13:11 45.21592 8.98590 4431 ft 218 kts 172°
2026-05-06 13:11 45.20104 8.98988 4306 ft 217 kts 172°
2026-05-06 13:12 45.18621 8.99387 4172 ft 216 kts 171°
2026-05-06 13:12 45.17145 8.99785 4048 ft 216 kts 171°
2026-05-06 13:12 45.15668 9.00180 4001 ft 218 kts 172°
2026-05-06 13:12 45.14182 9.00577 3994 ft 210 kts 172°
2026-05-06 13:13 45.12800 9.00949 3990 ft 196 kts 173°
2026-05-06 13:13 45.11477 9.01304 3997 ft 192 kts 172°
2026-05-06 13:13 45.10168 9.01657 3978 ft 191 kts 172°
2026-05-06 13:13 45.08858 9.02007 3982 ft 191 kts 172°
2026-05-06 13:14 45.07552 9.02135 3978 ft 187 kts 193°
2026-05-06 13:14 45.06396 9.01355 3984 ft 187 kts 221°
2026-05-06 13:14 45.05691 8.99818 4002 ft 192 kts 251°
2026-05-06 13:14 45.05425 8.97944 4011 ft 195 kts 255°
2026-05-06 13:15 45.05173 8.96060 4012 ft 195 kts 254°
2026-05-06 13:15 45.04919 8.94177 4000 ft 194 kts 255°
2026-05-06 13:15 45.04667 8.92295 4011 ft 195 kts 257°
2026-05-06 13:15 45.04777 8.90372 4001 ft 205 kts 288°
2026-05-06 13:16 45.05673 8.88774 4008 ft 216 kts 324°
2026-05-06 13:16 45.07086 8.88087 4024 ft 222 kts 346°
2026-05-06 13:16 45.08606 8.87681 4009 ft 222 kts 346°
2026-05-06 13:16 45.10123 8.87278 4007 ft 222 kts 346°
2026-05-06 13:17 45.11642 8.86873 4009 ft 223 kts 346°
2026-05-06 13:17 45.13167 8.86465 4012 ft 223 kts 346°
2026-05-06 13:17 45.14691 8.86058 4015 ft 221 kts 348°
2026-05-06 13:17 45.16189 8.85655 4004 ft 218 kts 348°
2026-05-06 13:18 45.17679 8.85250 4009 ft 218 kts 348°
2026-05-06 13:18 45.19167 8.84847 4006 ft 217 kts 348°
2026-05-06 13:18 45.20652 8.84446 4004 ft 217 kts 348°
2026-05-06 13:18 45.22134 8.84043 4001 ft 217 kts 348°
2026-05-06 13:19 45.23618 8.83639 4003 ft 217 kts 349°
2026-05-06 13:19 45.25098 8.83239 4080 ft 217 kts 348°
2026-05-06 13:19 45.26603 8.83108 4089 ft 217 kts 357°
2026-05-06 13:19 45.28106 8.82897 4094 ft 217 kts 350°
2026-05-06 13:20 45.29591 8.82526 4094 ft 216 kts 348°
2026-05-06 13:20 45.31071 8.82123 4099 ft 217 kts 348°
2026-05-06 13:20 45.32553 8.81717 4098 ft 217 kts 347°
2026-05-06 13:20 45.34038 8.81311 4101 ft 217 kts 348°
2026-05-06 13:21 45.35518 8.80906 4102 ft 216 kts 348°
2026-05-06 13:21 45.36997 8.80502 4105 ft 216 kts 348°
2026-05-06 13:21 45.38476 8.80097 3997 ft 216 kts 348°
2026-05-06 13:21 45.39951 8.79694 3889 ft 216 kts 348°
2026-05-06 13:22 45.41423 8.79291 3755 ft 215 kts 348°
2026-05-06 13:22 45.42890 8.78889 3647 ft 215 kts 348°
2026-05-06 13:22 45.44357 8.78486 3437 ft 214 kts 349°
2026-05-06 13:22 45.45810 8.78088 3325 ft 212 kts 348°
2026-05-06 13:23 45.47265 8.77688 3220 ft 212 kts 348°
2026-05-06 13:23 45.48647 8.77310 3167 ft 191 kts 348°
2026-05-06 13:23 45.49893 8.76968 3003 ft 174 kts 349°
2026-05-06 13:23 45.51031 8.76654 2818 ft 162 kts 349°
2026-05-06 13:24 45.52107 8.76358 2604 ft 156 kts 349°
2026-05-06 13:24 45.53161 8.76068 2403 ft 154 kts 349°
2026-05-06 13:24 45.54193 8.75784 2209 ft 152 kts 349°
2026-05-06 13:24 45.55245 8.75495 2001 ft 151 kts 349°
2026-05-06 13:25 45.56263 8.75215 1801 ft 151 kts 349°
2026-05-06 13:25 45.57285 8.74933 1605 ft 149 kts 350°
2026-05-06 13:25 45.58287 8.74654 1406 ft 145 kts 348°
2026-05-06 13:25 45.59263 8.74372 1223 ft 142 kts 349°
2026-05-06 13:26 45.60214 8.74109 1057 ft 138 kts 350°
2026-05-06 13:26 45.61155 8.73871 875 ft 134 kts 348°
2026-05-06 13:26 45.62067 8.73609 751 ft 132 kts 349°
2026-05-06 13:26 45.62844 8.73399 737 ft 90 kts 349°
2026-05-06 13:27 45.63289 8.73271 738 ft 42 kts 348°
2026-05-06 13:27 45.63527 8.73205 742 ft 32 kts 349°
2026-05-06 13:27 45.63714 8.73075 742 ft 29 kts 319°
2026-05-06 13:27 45.63831 8.72883 740 ft 16 kts 301°
2026-05-06 13:28 45.63918 8.72796 741 ft 16 kts 349°
2026-05-06 13:28 45.64031 8.72764 740 ft 17 kts 348°
2026-05-06 13:28 45.64150 8.72730 740 ft 18 kts 349°
2026-05-06 13:28 45.64275 8.72695 739 ft 19 kts 349°
2026-05-06 13:29 45.64321 8.72660 740 ft 5 kts 277°
2026-05-06 13:29 45.64316 8.72613 740 ft 5 kts 258°
2026-05-06 13:29 45.64305 8.72540 740 ft 7 kts 258°
2026-05-06 13:29 45.64300 8.72501 740 ft 0 kts 258°